Погода в Панахесе

Россия / Республика Адыгея     44°59′10″N   38°42′54″E
темп.,
°C
ветер,
м/с
пор.,
м/с
влажн.,
%
обл.,
%
осадки,
мм/ч
давл.,
гПа
погр.,
м
20 апреля, вт
вт2000:00+12сз0199100 2.8 101345
03:00+12в4899100 14.5 1009326
06:00+13юз2299100 0.3 1006110
09:00+14св129699 0.9 1006198
12:00+14з3890100 0.3 1007490
15:00+17юз711636 0.3 10081428
18:00+14ююз6116984 0.0 1010602
21:00+11ююз6138016 0.0 1012657
21 апреля, ср
ср2100:00+10зюз7128373 0.1 1014817
03:00+8ююз488918 0.1 1015185
06:00+8ююз3689100 0.0 1017109
09:00+13юз347380 0.1 1018649
12:00+16зюз456096 0.3 10181643
15:00+15з456291 0.3 10191185
18:00+14з46716 0.0 1019388
21:00+9зюз338599 0.0 102150
22 апреля, чт
чт2200:00+8юз118899 0.0 102111
03:00+7зсз008999 0.0 102110
06:00+7ссз009092 0.0 102210
09:00+12ссв117363 0.0 1023426
12:00+16ссв226131 0.0 10221155
15:00+17св115486 0.1 10221637
18:00+16вюв127165 0.1 102140
21:00+11ссз238325 0.1 102340
23 апреля, пт
пт2300:00+9зсз33900 0.0 102240
03:00+8з22890 0.0 102317
06:00+8зюз11880 0.0 102311
09:00+13ююв22710 0.0 1023390
12:00+18юз12565 0.0 10221495
15:00+19юз335196 0.1 10211621
18:00+17юз225934 0.1 102135
21:00+11з127591 0.1 102120
24 апреля, сб
сб2400:00+10ююз1176100 0.0 102012
03:00+10юз1174100 0.0 101911
06:00+10з2277100 0.0 101931
09:00+14ююз2265100 0.0 1019233
12:00+18зюз4950100 0.0 10191927
15:00+18з4654100 0.0 10181730
18:00+13сз5679100 0.1 1020529
21:00+9зсз3486100 0.1 102191